UP1225 URMM-USSS

Flight info

Callsign UP1225
Flight time 2h 23m
Altitude 39000
Route LARIN5M LARIN G481 NIRGA R807 UROBO P135 LOMBI LOMBI6R
Aircraft B737/M-SDE2E3FGHIRWXY/LB1

Departure

Time 2026-04-20 16:48
Airport Mineralnye Vody Airport (URMM)

Arrival

Time 2026-04-20 19:11
Airport Koltsovo Airport (USSS)
Time Latitude Longitude Altitude Speed Heading
2026-04-20 16:34 44.21697 43.09117 1050 ft 0 kts 212°
2026-04-20 16:41 44.21713 43.09132 1050 ft 4 kts 212°
2026-04-20 16:41 44.21733 43.09149 1050 ft 3 kts 212°
2026-04-20 16:41 44.21751 43.09172 1052 ft 4 kts 250°
2026-04-20 16:42 44.21753 43.09207 1051 ft 4 kts 284°
2026-04-20 16:42 44.21746 43.09233 1052 ft 0 kts 302°
2026-04-20 16:45 44.21751 43.09222 1051 ft 3 kts 300°
2026-04-20 16:45 44.21769 43.09181 1050 ft 7 kts 300°
2026-04-20 16:45 44.21801 43.09105 1050 ft 11 kts 300°
2026-04-20 16:45 44.21866 43.09074 1050 ft 11 kts 18°
2026-04-20 16:46 44.21933 43.09123 1050 ft 11 kts 24°
2026-04-20 16:46 44.22002 43.09105 1050 ft 10 kts 335°
2026-04-20 16:46 44.22064 43.09061 1051 ft 10 kts 332°
2026-04-20 16:46 44.22131 43.09010 1052 ft 12 kts 332°
2026-04-20 16:47 44.22216 43.08946 1052 ft 16 kts 332°
2026-04-20 16:47 44.22322 43.08867 1051 ft 19 kts 332°
2026-04-20 16:47 44.22445 43.08760 1053 ft 24 kts 316°
2026-04-20 16:47 44.22622 43.08410 1053 ft 82 kts 301°
2026-04-20 16:48 44.23096 43.07363 1063 ft 169 kts 302°
2026-04-20 16:48 44.23786 43.05827 1836 ft 190 kts 302°
2026-04-20 16:48 44.24441 43.04365 3539 ft 160 kts 303°
2026-04-20 16:48 44.25059 43.03012 4527 ft 183 kts 304°
2026-04-20 16:49 44.25822 43.01446 5191 ft 195 kts 304°
2026-04-20 16:49 44.26567 42.99887 6289 ft 189 kts 301°
2026-04-20 16:49 44.27295 42.98255 6846 ft 211 kts 299°
2026-04-20 16:49 44.28101 42.96385 7274 ft 232 kts 298°
2026-04-20 16:50 44.28942 42.94455 7985 ft 246 kts 299°
2026-04-20 16:50 44.29963 42.92362 8475 ft 269 kts 310°
2026-04-20 16:50 44.31526 42.90884 9728 ft 279 kts 334°
2026-04-20 16:50 44.33481 42.90414 10672 ft 299 kts 358°
2026-04-20 16:51 44.35647 42.90973 11046 ft 334 kts 12°
2026-04-20 16:51 44.37921 42.91958 11837 ft 347 kts 15°
2026-04-20 16:51 44.40220 42.93041 12956 ft 350 kts 16°
2026-04-20 16:51 44.42536 42.94129 14079 ft 352 kts 16°
2026-04-20 16:52 44.44885 42.95209 15002 ft 358 kts 15°
2026-04-20 16:52 44.47276 42.96284 15897 ft 364 kts 15°
2026-04-20 16:52 44.49709 42.97364 16826 ft 369 kts 15°
2026-04-20 16:52 44.52177 42.98452 17767 ft 374 kts 15°
2026-04-20 16:53 44.54682 42.99554 18676 ft 379 kts 15°
2026-04-20 16:53 44.57216 43.00669 19434 ft 385 kts 15°
2026-04-20 16:53 44.59763 43.01804 20171 ft 392 kts 17°
2026-04-20 16:53 44.62269 43.03425 20913 ft 401 kts 26°
2026-04-20 16:54 44.64706 43.05399 21673 ft 408 kts 28°
2026-04-20 16:54 44.67149 43.07477 22409 ft 414 kts 29°
2026-04-20 16:54 44.69631 43.09595 23126 ft 420 kts 28°
2026-04-20 16:54 44.72161 43.11725 23799 ft 426 kts 28°
2026-04-20 16:55 44.74729 43.13859 24393 ft 431 kts 28°
2026-04-20 16:55 44.77330 43.15998 25016 ft 435 kts 28°
2026-04-20 16:55 44.79960 43.18152 25622 ft 440 kts 28°
2026-04-20 16:55 44.82620 43.20326 26207 ft 444 kts 28°
2026-04-20 16:56 44.85317 43.22531 26704 ft 451 kts 28°
2026-04-20 16:56 44.88046 43.24767 27243 ft 456 kts 28°
2026-04-20 16:56 44.90798 43.27025 27818 ft 460 kts 28°
2026-04-20 16:56 44.93573 43.29306 28369 ft 463 kts 28°
2026-04-20 16:57 44.96375 43.31611 28875 ft 468 kts 28°
2026-04-20 16:57 44.99197 43.33932 29427 ft 470 kts 28°
2026-04-20 16:57 45.02027 43.36237 30120 ft 469 kts 27°
2026-04-20 16:57 45.04875 43.38548 30414 ft 475 kts 27°
2026-04-20 16:58 45.07817 43.40732 30688 ft 478 kts 21°
2026-04-20 16:58 45.10942 43.42312 31066 ft 476 kts 11°
2026-04-20 16:58 45.14141 43.43267 31464 ft 476 kts
2026-04-20 16:58 45.17407 43.44112 31809 ft 478 kts
2026-04-20 16:59 45.20690 43.44942 32145 ft 480 kts
2026-04-20 16:59 45.23977 43.45793 32573 ft 480 kts
2026-04-20 16:59 45.27259 43.46670 32980 ft 481 kts
2026-04-20 16:59 45.30544 43.47569 33397 ft 481 kts
2026-04-20 17:00 45.37092 43.49390 34305 ft 477 kts
2026-04-20 17:00 45.40348 43.50298 34664 ft 477 kts
2026-04-20 17:00 45.43608 43.51205 34938 ft 478 kts
2026-04-20 17:01 45.46883 43.52116 35210 ft 479 kts
2026-04-20 17:01 45.50160 43.53029 35506 ft 479 kts
2026-04-20 17:01 45.53440 43.53947 35803 ft 480 kts
2026-04-20 17:01 45.56717 43.54866 36117 ft 479 kts
2026-04-20 17:02 45.59987 43.55785 36414 ft 479 kts
2026-04-20 17:02 45.63274 43.56710 36696 ft 480 kts
2026-04-20 17:02 45.66548 43.57632 36981 ft 480 kts
2026-04-20 17:02 45.69826 43.58556 37325 ft 479 kts
2026-04-20 17:03 45.73092 43.59478 37634 ft 479 kts
2026-04-20 17:03 45.76369 43.60404 37850 ft 480 kts
2026-04-20 17:03 45.79607 43.61319 38091 ft 481 kts
2026-04-20 17:03 45.82891 43.62249 38393 ft 480 kts
2026-04-20 17:04 45.86167 43.63179 38685 ft 480 kts
2026-04-20 17:04 45.89446 43.64110 38884 ft 480 kts
2026-04-20 17:04 45.92726 43.65042 39056 ft 481 kts
2026-04-20 17:04 45.96013 43.65977 39259 ft 481 kts
2026-04-20 17:05 45.99306 43.66915 39438 ft 481 kts
2026-04-20 17:05 46.02592 43.67888 39650 ft 482 kts
2026-04-20 17:05 46.05864 43.68951 39911 ft 480 kts 10°
2026-04-20 17:05 46.09074 43.70036 40119 ft 480 kts 10°
2026-04-20 17:06 46.12330 43.71147 40281 ft 480 kts 10°
2026-04-20 17:06 46.15582 43.72252 40444 ft 481 kts 10°
2026-04-20 17:06 46.18849 43.73354 40617 ft 481 kts 10°
2026-04-20 17:06 46.22109 43.74446 40761 ft 482 kts 10°
2026-04-20 17:07 46.25381 43.75539 40907 ft 483 kts 10°
2026-04-20 17:07 46.31952 43.77734 40997 ft 486 kts 10°
2026-04-20 17:08 46.38520 43.79936 40997 ft 482 kts 10°
2026-04-20 17:08 46.45046 43.82130 41009 ft 479 kts 10°
2026-04-20 17:09 46.51522 43.84312 41008 ft 476 kts 10°
2026-04-20 17:09 46.57969 43.86515 41010 ft 475 kts 10°
2026-04-20 17:10 46.64372 43.88716 41007 ft 476 kts 10°
2026-04-20 17:10 46.70837 43.90942 41017 ft 478 kts 10°
2026-04-20 17:11 46.77328 43.93180 41009 ft 480 kts 10°
2026-04-20 17:11 46.83846 43.95433 41015 ft 482 kts 10°
2026-04-20 17:12 46.90392 43.97702 41007 ft 484 kts 10°
2026-04-20 17:12 46.96960 43.99984 41004 ft 485 kts 10°
2026-04-20 17:13 47.03544 44.02276 40997 ft 486 kts 10°
2026-04-20 17:13 47.10085 44.04557 41013 ft 486 kts 10°
2026-04-20 17:14 47.16676 44.06862 40997 ft 486 kts 10°
2026-04-20 17:14 47.23253 44.09170 40993 ft 485 kts 10°
2026-04-20 17:15 47.29805 44.11473 40994 ft 483 kts 10°
2026-04-20 17:15 47.36346 44.13779 40990 ft 482 kts 10°
2026-04-20 17:16 47.42869 44.16084 41006 ft 481 kts 10°
2026-04-20 17:16 47.49337 44.18376 40994 ft 480 kts 10°
2026-04-20 17:17 47.55833 44.20683 40981 ft 480 kts 10°
2026-04-20 17:17 47.62330 44.22996 40979 ft 479 kts 10°
2026-04-20 17:18 47.68819 44.25313 40984 ft 479 kts 10°
2026-04-20 17:18 47.74212 44.27242 40978 ft 480 kts 10°
2026-04-20 17:19 47.80704 44.29571 41001 ft 480 kts 10°
2026-04-20 17:19 47.87204 44.31909 40979 ft 481 kts 10°
2026-04-20 17:20 47.93709 44.34290 40968 ft 482 kts 12°
2026-04-20 17:20 48.00126 44.37249 40971 ft 483 kts 15°
2026-04-20 17:21 48.06513 44.40434 40964 ft 484 kts 15°
2026-04-20 17:21 48.12867 44.43564 40966 ft 484 kts 15°
2026-04-20 17:22 48.19282 44.46678 40979 ft 484 kts 15°
2026-04-20 17:22 48.25704 44.49790 40958 ft 485 kts 15°
2026-04-20 17:23 48.32116 44.52908 40952 ft 485 kts 15°
2026-04-20 17:23 48.38531 44.56040 40951 ft 484 kts 15°
2026-04-20 17:24 48.44942 44.59177 40947 ft 484 kts 15°
2026-04-20 17:24 48.51340 44.62316 40945 ft 483 kts 15°
2026-04-20 17:25 48.57731 44.65502 40940 ft 483 kts 15°
2026-04-20 17:25 48.64117 44.68707 40944 ft 483 kts 15°
2026-04-20 17:26 48.70467 44.71855 40938 ft 483 kts 15°
2026-04-20 17:26 48.76855 44.75004 40935 ft 482 kts 15°
2026-04-20 17:27 48.83237 44.78167 40931 ft 482 kts 15°
2026-04-20 17:27 48.89658 44.81073 40928 ft 481 kts 12°
2026-04-20 17:28 48.96122 44.83697 40924 ft 481 kts 12°
2026-04-20 17:28 49.02588 44.86348 40927 ft 481 kts 12°
2026-04-20 17:29 49.09041 44.89057 40918 ft 481 kts 12°
2026-04-20 17:29 49.15499 44.91797 40914 ft 482 kts 13°
2026-04-20 17:30 49.21926 44.94532 40908 ft 482 kts 12°
2026-04-20 17:30 49.28380 44.97284 40912 ft 481 kts 13°
2026-04-20 17:31 49.34841 45.00044 40901 ft 482 kts 13°
2026-04-20 17:31 49.41304 45.02813 40910 ft 482 kts 13°
2026-04-20 17:32 49.47776 45.05594 40902 ft 483 kts 13°
2026-04-20 17:32 49.54208 45.08365 40895 ft 483 kts 13°
2026-04-20 17:33 49.60682 45.11162 40897 ft 483 kts 13°
2026-04-20 17:33 49.67159 45.13967 40889 ft 483 kts 13°
2026-04-20 17:34 49.73630 45.16790 40883 ft 483 kts 13°
2026-04-20 17:34 49.80102 45.19629 40905 ft 483 kts 13°
2026-04-20 17:35 49.86583 45.22479 40883 ft 484 kts 13°
2026-04-20 17:35 49.93058 45.25333 40878 ft 484 kts 13°
2026-04-20 17:36 49.99526 45.28192 40876 ft 483 kts 13°
2026-04-20 17:36 50.06030 45.30807 40872 ft 481 kts
2026-04-20 17:37 50.12543 45.32960 40873 ft 481 kts
2026-04-20 17:37 50.19097 45.35099 40854 ft 481 kts
2026-04-20 17:38 50.25647 45.37305 40858 ft 481 kts
2026-04-20 17:38 50.32191 45.39547 40849 ft 481 kts 10°
2026-04-20 17:39 50.38686 45.41783 40857 ft 481 kts 10°
2026-04-20 17:39 50.45224 45.44036 40849 ft 481 kts 10°
2026-04-20 17:40 50.51769 45.46297 40837 ft 481 kts 10°
2026-04-20 17:40 50.58320 45.48566 40845 ft 482 kts 10°
2026-04-20 17:41 50.64874 45.50844 40842 ft 482 kts 10°
2026-04-20 17:41 50.71426 45.53127 40824 ft 482 kts 10°
2026-04-20 17:42 50.77939 45.55402 40828 ft 482 kts 10°
2026-04-20 17:42 50.84477 45.57718 40825 ft 482 kts 11°
2026-04-20 17:43 50.91028 45.60066 40825 ft 482 kts 11°
2026-04-20 17:43 50.97567 45.62412 40828 ft 482 kts 11°
2026-04-20 17:44 51.04071 45.65026 40801 ft 484 kts 19°
2026-04-20 17:44 51.10164 45.69429 40813 ft 484 kts 25°
2026-04-20 17:45 51.16218 45.74137 40811 ft 484 kts 25°
2026-04-20 17:45 51.22297 45.78788 40805 ft 484 kts 24°
2026-04-20 17:46 51.28396 45.83393 40800 ft 485 kts 24°
2026-04-20 17:46 51.34497 45.87998 40792 ft 485 kts 24°
2026-04-20 17:47 51.40597 45.92622 40794 ft 485 kts 24°
2026-04-20 17:47 51.46694 45.97262 40789 ft 485 kts 24°
2026-04-20 17:48 51.52795 46.01916 40780 ft 486 kts 24°
2026-04-20 17:48 51.58584 46.07474 40769 ft 486 kts 40°
2026-04-20 17:49 51.63641 46.14592 40776 ft 486 kts 42°
2026-04-20 17:49 51.68694 46.21844 40773 ft 486 kts 41°
2026-04-20 17:50 51.73791 46.29013 40773 ft 485 kts 41°
2026-04-20 17:50 51.78888 46.36158 40774 ft 485 kts 41°
2026-04-20 17:51 51.83617 46.43905 40781 ft 484 kts 52°
2026-04-20 17:51 51.87673 46.52521 40771 ft 484 kts 53°
2026-04-20 17:52 51.91774 46.61162 40756 ft 484 kts 52°
2026-04-20 17:52 51.95920 46.69778 40760 ft 484 kts 53°
2026-04-20 17:53 52.00009 46.78378 40758 ft 484 kts 53°
2026-04-20 17:53 52.04112 46.87048 40759 ft 484 kts 53°
2026-04-20 17:54 52.08211 46.95731 40763 ft 484 kts 53°
2026-04-20 17:54 52.12303 47.04423 40754 ft 484 kts 53°
2026-04-20 17:55 52.16394 47.13140 40753 ft 484 kts 53°
2026-04-20 17:55 52.20476 47.21862 40751 ft 484 kts 53°
2026-04-20 17:56 52.24560 47.30613 40745 ft 484 kts 53°
2026-04-20 17:56 52.28632 47.39369 40743 ft 484 kts 54°
2026-04-20 17:57 52.32672 47.48084 40739 ft 484 kts 54°
2026-04-20 17:57 52.36731 47.56864 40740 ft 484 kts 54°
2026-04-20 17:58 52.40793 47.65675 40732 ft 484 kts 54°
2026-04-20 17:58 52.44837 47.74479 40729 ft 484 kts 54°
2026-04-20 17:59 52.48878 47.83310 40730 ft 484 kts 54°
2026-04-20 17:59 52.52912 47.92154 40725 ft 484 kts 54°
2026-04-20 18:00 52.56938 48.01013 40719 ft 484 kts 54°
2026-04-20 18:00 52.60959 48.09885 40717 ft 484 kts 54°
2026-04-20 18:01 52.64974 48.18781 40715 ft 484 kts 54°
2026-04-20 18:01 52.68966 48.27660 40709 ft 484 kts 55°
2026-04-20 18:02 52.72966 48.36588 40697 ft 484 kts 55°
2026-04-20 18:02 52.76964 48.45540 40700 ft 484 kts 55°
2026-04-20 18:03 52.80958 48.54517 40698 ft 485 kts 55°
2026-04-20 18:03 52.84947 48.63514 40694 ft 485 kts 55°
2026-04-20 18:04 52.88931 48.72532 40685 ft 485 kts 55°
2026-04-20 18:04 52.92239 48.80040 40686 ft 485 kts 55°
2026-04-20 18:05 52.98185 48.93645 40673 ft 486 kts 56°
2026-04-20 18:05 53.02134 49.02756 40675 ft 486 kts 56°
2026-04-20 18:06 53.06082 49.11886 40663 ft 486 kts 56°
2026-04-20 18:06 53.10023 49.21025 40660 ft 486 kts 56°
2026-04-20 18:07 53.13971 49.30178 40660 ft 487 kts 56°
2026-04-20 18:07 53.17914 49.39348 40645 ft 487 kts 56°
2026-04-20 18:08 53.21852 49.48545 40646 ft 487 kts 56°
2026-04-20 18:08 53.25756 49.57697 40641 ft 487 kts 56°
2026-04-20 18:09 53.29681 49.66931 40634 ft 487 kts 56°
2026-04-20 18:09 53.33602 49.76192 40637 ft 487 kts 56°
2026-04-20 18:10 53.37511 49.85458 40623 ft 487 kts 56°
2026-04-20 18:10 53.41419 49.94756 40629 ft 487 kts 56°
2026-04-20 18:11 53.45290 50.03999 40612 ft 487 kts 56°
2026-04-20 18:11 53.49183 50.13328 40613 ft 487 kts 56°
2026-04-20 18:12 53.53062 50.22666 40605 ft 487 kts 57°
2026-04-20 18:12 53.56916 50.32021 40611 ft 487 kts 57°
2026-04-20 18:13 53.60768 50.41410 40620 ft 486 kts 57°
2026-04-20 18:13 53.64604 50.50792 40605 ft 486 kts 57°
2026-04-20 18:14 53.68439 50.60201 40598 ft 486 kts 57°
2026-04-20 18:14 53.72264 50.69622 40612 ft 486 kts 57°
2026-04-20 18:15 53.76084 50.79065 40622 ft 487 kts 57°
2026-04-20 18:15 53.79878 50.88481 40617 ft 487 kts 57°
2026-04-20 18:16 53.83694 50.97988 40617 ft 488 kts 57°
2026-04-20 18:16 53.87502 51.07510 40620 ft 488 kts 57°
2026-04-20 18:17 53.91307 51.17061 40617 ft 489 kts 57°
2026-04-20 18:17 53.95109 51.26640 40623 ft 489 kts 57°
2026-04-20 18:18 53.98904 51.36237 40623 ft 489 kts 57°
2026-04-20 18:18 54.02818 51.45709 40625 ft 489 kts 53°
2026-04-20 18:19 54.07049 51.54695 40633 ft 489 kts 51°
2026-04-20 18:19 54.11337 51.63690 40629 ft 489 kts 52°
2026-04-20 18:20 54.15567 51.72748 40642 ft 488 kts 52°
2026-04-20 18:20 54.19769 51.81861 40635 ft 487 kts 53°
2026-04-20 18:21 54.23949 51.90972 40642 ft 487 kts 53°
2026-04-20 18:21 54.28119 52.00084 40662 ft 486 kts 53°
2026-04-20 18:22 54.32289 52.09227 40655 ft 486 kts 53°
2026-04-20 18:22 54.36443 52.18370 40636 ft 486 kts 53°
2026-04-20 18:23 54.40566 52.27476 40655 ft 486 kts 53°
2026-04-20 18:23 54.44709 52.36666 40661 ft 487 kts 53°
2026-04-20 18:24 54.48848 52.45901 40662 ft 487 kts 53°
2026-04-20 18:24 54.52985 52.55164 40662 ft 488 kts 52°
2026-04-20 18:25 54.57126 52.64467 40668 ft 489 kts 53°
2026-04-20 18:25 54.61259 52.73792 40665 ft 490 kts 53°
2026-04-20 18:26 54.65235 52.83335 40657 ft 489 kts 60°
2026-04-20 18:26 54.68512 52.93549 40665 ft 489 kts 63°
2026-04-20 18:27 54.71718 53.03909 40672 ft 489 kts 62°
2026-04-20 18:27 54.74986 53.14231 40671 ft 488 kts 62°
2026-04-20 18:28 54.78271 53.24526 40672 ft 488 kts 62°
2026-04-20 18:28 54.81538 53.34824 40676 ft 487 kts 62°
2026-04-20 18:29 54.84777 53.45135 40673 ft 486 kts 62°
2026-04-20 18:29 54.87978 53.55379 40684 ft 485 kts 62°
2026-04-20 18:30 54.91189 53.65685 40685 ft 485 kts 63°
2026-04-20 18:30 54.94407 53.76060 40705 ft 491 kts 63°
2026-04-20 18:31 54.97666 53.86613 40701 ft 499 kts 63°
2026-04-20 18:31 55.00951 53.97297 40696 ft 500 kts 63°
2026-04-20 18:32 55.04233 54.08017 40704 ft 501 kts 63°
2026-04-20 18:32 55.07501 54.18741 40705 ft 501 kts 63°
2026-04-20 18:33 55.10740 54.29418 40713 ft 500 kts 63°
2026-04-20 18:33 55.13983 54.40160 40711 ft 500 kts 63°
2026-04-20 18:34 55.17219 54.50919 40712 ft 499 kts 63°
2026-04-20 18:34 55.20448 54.61696 40712 ft 499 kts 63°
2026-04-20 18:35 55.23665 54.72460 40714 ft 498 kts 63°
2026-04-20 18:35 55.26872 54.83235 40704 ft 498 kts 63°
2026-04-20 18:36 55.30066 54.94018 40712 ft 498 kts 63°
2026-04-20 18:36 55.33254 55.04817 40720 ft 498 kts 63°
2026-04-20 18:37 55.36435 55.15644 40717 ft 499 kts 64°
2026-04-20 18:37 55.39588 55.26418 40710 ft 499 kts 64°
2026-04-20 18:38 55.42751 55.37300 40719 ft 499 kts 64°
2026-04-20 18:38 55.45905 55.48211 40717 ft 499 kts 64°
2026-04-20 18:39 55.49052 55.59142 40719 ft 500 kts 64°
2026-04-20 18:39 55.52189 55.70090 40715 ft 500 kts 64°
2026-04-20 18:40 55.55320 55.81070 40715 ft 500 kts 64°
2026-04-20 18:40 55.58424 55.92003 40719 ft 500 kts 64°
2026-04-20 18:41 55.61532 56.03006 40722 ft 500 kts 64°
2026-04-20 18:41 55.64636 56.14042 40723 ft 501 kts 64°
2026-04-20 18:42 55.67732 56.25107 40730 ft 500 kts 64°
2026-04-20 18:42 55.70811 56.36164 40732 ft 500 kts 64°
2026-04-20 18:43 55.73883 56.47247 40735 ft 500 kts 64°
2026-04-20 18:43 55.76912 56.58231 40728 ft 489 kts 64°
2026-04-20 18:44 55.79878 56.69029 40742 ft 484 kts 64°
2026-04-20 18:44 55.82813 56.79761 40747 ft 481 kts 64°
2026-04-20 18:45 55.85732 56.90449 40771 ft 479 kts 64°
2026-04-20 18:45 55.88636 57.01121 40769 ft 478 kts 64°
2026-04-20 18:46 55.91509 57.11738 40786 ft 479 kts 64°
2026-04-20 18:46 55.94402 57.22472 40794 ft 480 kts 64°
2026-04-20 18:47 55.95854 57.27882 40476 ft 488 kts 64°
2026-04-20 18:47 55.97323 57.33370 39881 ft 491 kts 65°
2026-04-20 18:47 55.98784 57.38871 39278 ft 490 kts 65°
2026-04-20 18:47 56.00241 57.44384 38611 ft 491 kts 65°
2026-04-20 18:48 56.01684 57.49857 37826 ft 492 kts 65°
2026-04-20 18:48 56.03139 57.55385 37084 ft 491 kts 66°
2026-04-20 18:48 56.04592 57.60919 36352 ft 491 kts 66°
2026-04-20 18:48 56.06044 57.66458 35623 ft 490 kts 66°
2026-04-20 18:49 56.07491 57.71990 34799 ft 492 kts 66°
2026-04-20 18:49 56.08946 57.77569 33911 ft 496 kts 67°
2026-04-20 18:49 56.10404 57.83173 33125 ft 495 kts 67°
2026-04-20 18:49 56.11849 57.88733 32462 ft 490 kts 67°
2026-04-20 18:50 56.13279 57.94248 31768 ft 485 kts 67°
2026-04-20 18:50 56.14706 57.99760 30843 ft 488 kts 68°
2026-04-20 18:50 56.15651 58.03410 30415 ft 485 kts 68°
2026-04-20 18:50 56.17063 58.08867 29768 ft 480 kts 68°
2026-04-20 18:51 56.18459 58.14271 29070 ft 473 kts 68°
2026-04-20 18:51 56.19831 58.19600 28440 ft 466 kts 67°
2026-04-20 18:51 56.21611 58.26535 27639 ft 457 kts 67°
2026-04-20 18:51 56.22932 58.31697 27015 ft 452 kts 67°
2026-04-20 18:52 56.24233 58.36797 26407 ft 446 kts 67°
2026-04-20 18:52 56.25101 58.40206 26002 ft 443 kts 67°
2026-04-20 18:52 56.26378 58.45222 25404 ft 438 kts 66°
2026-04-20 18:52 56.27639 58.50191 24832 ft 434 kts 66°
2026-04-20 18:53 56.28883 58.55105 24276 ft 429 kts 66°
2026-04-20 18:53 56.30092 58.59887 23844 ft 421 kts 66°
2026-04-20 18:53 56.31299 58.64672 23271 ft 418 kts 66°
2026-04-20 18:53 56.32497 58.69417 22622 ft 414 kts 65°
2026-04-20 18:54 56.33683 58.74134 21995 ft 410 kts 66°
2026-04-20 18:54 56.34850 58.78796 21410 ft 406 kts 66°
2026-04-20 18:54 56.36004 58.83416 20823 ft 402 kts 66°
2026-04-20 18:54 56.37145 58.87991 20264 ft 398 kts 66°
2026-04-20 18:55 56.38277 58.92537 19691 ft 395 kts 66°
2026-04-20 18:55 56.39394 58.97033 19123 ft 391 kts 66°
2026-04-20 18:55 56.40504 59.01499 18559 ft 388 kts 66°
2026-04-20 18:55 56.41601 59.05930 17952 ft 385 kts 66°
2026-04-20 18:56 56.42691 59.10338 17327 ft 382 kts 66°
2026-04-20 18:56 56.43719 59.14723 16851 ft 375 kts 69°
2026-04-20 18:56 56.44655 59.19074 16313 ft 369 kts 70°
2026-04-20 18:56 56.45555 59.23404 15771 ft 366 kts 70°
2026-04-20 18:57 56.46440 59.27689 15228 ft 362 kts 70°
2026-04-20 18:57 56.47318 59.31931 14684 ft 359 kts 70°
2026-04-20 18:57 56.48191 59.36132 14143 ft 356 kts 70°
2026-04-20 18:57 56.49062 59.40310 13556 ft 354 kts 70°
2026-04-20 18:58 56.49917 59.44407 12963 ft 351 kts 70°
2026-04-20 18:58 56.50775 59.48519 12371 ft 347 kts 70°
2026-04-20 18:58 56.51621 59.52581 11826 ft 343 kts 71°
2026-04-20 18:58 56.52458 59.56604 11273 ft 339 kts 71°
2026-04-20 18:59 56.53285 59.60585 10743 ft 336 kts 71°
2026-04-20 18:59 56.54101 59.64527 10242 ft 332 kts 72°
2026-04-20 18:59 56.54892 59.68346 10120 ft 316 kts 72°
2026-04-20 18:59 56.55648 59.71998 9968 ft 302 kts 72°
2026-04-20 19:00 56.56375 59.75524 9646 ft 296 kts 72°
2026-04-20 19:00 56.57089 59.79001 9273 ft 292 kts 73°
2026-04-20 19:00 56.57792 59.82433 8868 ft 289 kts 73°
2026-04-20 19:00 56.58489 59.85836 8498 ft 286 kts 73°
2026-04-20 19:01 56.59179 59.89211 8117 ft 284 kts 73°
2026-04-20 19:01 56.59862 59.92557 7766 ft 281 kts 73°
2026-04-20 19:01 56.60530 59.95827 7401 ft 279 kts 73°
2026-04-20 19:01 56.61207 59.99151 7147 ft 273 kts 74°
2026-04-20 19:02 56.61850 60.02307 7007 ft 261 kts 74°
2026-04-20 19:02 56.62473 60.05349 6851 ft 254 kts 73°
2026-04-20 19:02 56.63139 60.08295 6628 ft 250 kts 72°
2026-04-20 19:02 56.63818 60.11207 6422 ft 251 kts 72°
2026-04-20 19:03 56.64489 60.14089 6206 ft 251 kts 72°
2026-04-20 19:03 56.65167 60.17009 5971 ft 250 kts 72°
2026-04-20 19:03 56.65838 60.19911 5755 ft 248 kts 72°
2026-04-20 19:03 56.66503 60.22802 5514 ft 246 kts 72°
2026-04-20 19:04 56.67163 60.25672 5272 ft 245 kts 72°
2026-04-20 19:04 56.67816 60.28528 5075 ft 244 kts 72°
2026-04-20 19:04 56.68467 60.31376 4856 ft 243 kts 72°
2026-04-20 19:04 56.69113 60.34205 4640 ft 240 kts 71°
2026-04-20 19:05 56.69946 60.36830 4408 ft 241 kts 56°
2026-04-20 19:05 56.70968 60.39157 4203 ft 235 kts 56°
2026-04-20 19:05 56.71953 60.41453 4013 ft 224 kts 57°
2026-04-20 19:05 56.72880 60.43649 3793 ft 213 kts 58°
2026-04-20 19:06 56.73758 60.45744 3605 ft 203 kts 58°
2026-04-20 19:06 56.74438 60.47881 3394 ft 187 kts 84°
2026-04-20 19:06 56.74489 60.50112 3286 ft 170 kts 91°
2026-04-20 19:06 56.74541 60.52201 3129 ft 159 kts 91°
2026-04-20 19:07 56.74557 60.54143 3011 ft 147 kts 92°
2026-04-20 19:07 56.74555 60.55928 2996 ft 140 kts 92°
2026-04-20 19:07 56.74549 60.57705 2999 ft 140 kts 93°
2026-04-20 19:07 56.74542 60.59469 2907 ft 137 kts 92°
2026-04-20 19:08 56.74535 60.61175 2738 ft 136 kts 90°
2026-04-20 19:08 56.74522 60.64395 2360 ft 118 kts 88°
2026-04-20 19:08 56.74518 60.65858 2210 ft 117 kts 88°
2026-04-20 19:09 56.74512 60.67339 2074 ft 116 kts 89°
2026-04-20 19:09 56.74494 60.68805 1900 ft 117 kts 89°
2026-04-20 19:09 56.74456 60.70309 1718 ft 120 kts 88°
2026-04-20 19:09 56.74468 60.71829 1468 ft 123 kts 83°
2026-04-20 19:10 56.74485 60.73442 1287 ft 130 kts 87°
2026-04-20 19:10 56.74467 60.75090 1152 ft 130 kts 87°
2026-04-20 19:10 56.74477 60.76703 962 ft 124 kts 85°
2026-04-20 19:10 56.74486 60.78245 780 ft 118 kts 87°
2026-04-20 19:11 56.74484 60.79523 778 ft 85 kts 90°
2026-04-20 19:11 56.74488 60.80343 778 ft 38 kts 90°
2026-04-20 19:11 56.74486 60.80617 778 ft 10 kts 69°
2026-04-20 19:11 56.74549 60.80647 778 ft 10 kts
2026-04-20 19:12 56.74561 60.80647 778 ft 0 kts
2026-04-20 19:12 56.74570 60.80647 778 ft 3 kts
2026-04-20 19:12 56.74603 60.80647 779 ft 5 kts
2026-04-20 19:13 56.74648 60.80647 779 ft 8 kts
2026-04-20 19:13 56.74710 60.80648 779 ft 9 kts
2026-04-20 19:13 56.74774 60.80648 779 ft 9 kts
2026-04-20 19:13 56.74834 60.80638 779 ft 8 kts 334°
2026-04-20 19:14 56.74854 60.80553 779 ft 8 kts 270°
2026-04-20 19:14 56.74854 60.80456 779 ft 7 kts 271°
2026-04-20 19:14 56.74895 60.80413 779 ft 7 kts 353°
2026-04-20 19:14 56.74909 60.80411 779 ft 0 kts 356°
2026-04-20 19:15 56.74918 60.80410 778 ft 0 kts 359°
2026-04-20 19:15 56.74922 60.80410 778 ft 0 kts 359°